ORBCOMM-X 1 21576U 91050C 26074.14880937 .00000334 00000+0 11140-3 0 9994 2 21576 98.3056 139.7592 0004852 89.8037 270.3710 14.43521494821204 ORBCOMM FM01 1 23545U 95017A 26074.28824957 .00006794 00000+0 63232-3 0 9999 2 23545 69.9607 115.8558 0007428 270.6904 89.3401 14.94705934652958 ORBCOMM FM02 1 23546U 95017B 26074.24834809 .00008294 00000+0 72909-3 0 9991 2 23546 69.9626 133.9241 0008730 271.5144 88.5014 14.96839588652634 ORBCOMM FM08 1 25112U 97084A 26073.66511767 .00001760 00000+0 51849-3 0 9999 2 25112 45.0123 148.2967 0007411 198.4930 161.5653 14.47002107480535 ORBCOMM FM10 1 25113U 97084B 26073.89819360 .00001386 00000+0 41928-3 0 9996 2 25113 45.0141 150.0861 0004844 173.5825 186.5090 14.46725018655701 ORBCOMM FM11 1 25114U 97084C 26073.95073034 .00001544 00000+0 46492-3 0 9991 2 25114 45.0129 150.9712 0005660 171.3922 188.7028 14.46461754480663 ORBCOMM FM12 1 25115U 97084D 26073.90908507 .00001489 00000+0 44961-3 0 9996 2 25115 45.0135 150.8899 0004731 173.4990 186.5924 14.46489418480457 ORBCOMM FM09 1 25116U 97084E 26073.62363737 .00001535 00000+0 46393-3 0 9999 2 25116 45.0138 153.5121 0005466 153.7538 206.3592 14.46311268480611 ORBCOMM FM05 1 25117U 97084F 26073.88623293 .00001581 00000+0 46910-3 0 9990 2 25117 45.0133 147.1954 0002904 199.2321 160.8422 14.47110591479801 ORBCOMM FM06 1 25118U 97084G 26073.95078871 .00001790 00000+0 52372-3 0 9996 2 25118 45.0123 146.2807 0002329 221.0834 308.8102 14.47292873480739 ORBCOMM FM07 1 25119U 97084H 26073.93001110 .00001615 00000+0 47647-3 0 9992 2 25119 45.0118 147.1207 0003300 185.6767 174.4048 14.47295460480728 ORBCOMM FM03 1 25158U 98007B 26074.25026454 .00000975 00000+0 38197-3 0 9993 2 25158 107.9625 332.7418 0042817 135.3777 225.0822 14.35316376462929 ORBCOMM FM04 1 25159U 98007C 26074.25849134 .00000835 00000+0 33286-3 0 9991 2 25159 107.9612 336.1604 0038631 132.5416 227.8997 14.35541156463110 ORBCOMM FM17 1 25413U 98046A 26074.20939876 .00000865 00000+0 34489-3 0 9994 2 25413 44.9944 57.8689 0000835 183.1002 176.9840 14.35756042442119 ORBCOMM FM18 1 25414U 98046B 26073.97386308 .00001205 00000+0 42870-3 0 9996 2 25414 44.9939 328.9150 0003574 214.3075 145.7543 14.39460905443253 ORBCOMM FM19 1 25415U 98046C 26073.97776137 .00001216 00000+0 43373-3 0 9991 2 25415 44.9956 331.3040 0002281 209.7112 267.1320 14.39288018443203 ORBCOMM FM20 1 25416U 98046D 26073.94521529 .00000883 00000+0 33663-3 0 9992 2 25416 44.9956 338.3591 0000938 308.9098 51.1667 14.37908260443227 ORBCOMM FM16 1 25417U 98046E 26074.29283980 .00001172 00000+0 41495-3 0 9992 2 25417 44.9946 324.4795 0003591 234.8870 125.1643 14.39851558443317 ORBCOMM FM15 1 25418U 98046F 26073.01963574 .00000484 00000+0 19921-3 0 9990 2 25418 44.9981 336.5132 0003228 233.3894 126.6658 14.39469327443112 ORBCOMM FM14 1 25419U 98046G 26073.93390781 .00001236 00000+0 43443-3 0 9998 2 25419 44.9968 329.5458 0002057 235.4971 124.5684 14.39912946443227 ORBCOMM FM13 1 25420U 98046H 26073.95319085 .00001010 00000+0 37402-3 0 9998 2 25420 44.9989 340.2609 0003947 208.8071 151.2560 14.38461360442210 ORBCOMM FM21 1 25475U 98053A 26074.23917484 .00000836 00000+0 32031-3 0 9993 2 25475 45.0080 65.2278 0001435 250.8793 109.1900 14.38026806436257 ORBCOMM FM22 1 25476U 98053B 26073.92372458 .00001175 00000+0 42070-3 0 9996 2 25476 45.0076 59.1987 0001667 190.6745 169.4069 14.39257025436263 ORBCOMM FM23 1 25477U 98053C 26074.26757774 .00001031 00000+0 38202-3 0 9996 2 25477 45.0081 66.7538 0001287 209.9180 150.1595 14.38290416436419 ORBCOMM FM24 1 25478U 98053D 26074.23051843 .00001116 00000+0 40437-3 0 9995 2 25478 45.0077 63.1406 0001460 225.2722 134.8008 14.38941875436472 ORBCOMM FM25 1 25479U 98053E 26074.27712377 .00001100 00000+0 39963-3 0 9991 2 25479 45.0072 61.2350 0003504 195.7928 164.2812 14.38901859436776 ORBCOMM FM26 1 25480U 98053F 26074.26906997 .00000885 00000+0 33746-3 0 9997 2 25480 45.0070 59.8098 0005781 202.8362 157.2229 14.37832736436656 ORBCOMM FM27 1 25481U 98053G 26074.25822871 .00001158 00000+0 41807-3 0 9996 2 25481 45.0054 61.4179 0001885 277.3316 82.7318 14.38946708436708 ORBCOMM FM28 1 25482U 98053H 26074.06030216 .00001073 00000+0 38977-3 0 9990 2 25482 45.0073 359.5585 0004117 240.2584 119.7855 14.39041151437368 ORBCOMM FM30 1 25980U 99065A 26074.15881042 .00000962 00000+0 36167-3 0 9993 2 25980 45.0305 246.4379 0005949 281.8423 78.1758 14.37993912373448 ORBCOMM FM31 1 25981U 99065B 26074.14525926 .00000910 00000+0 34521-3 0 9994 2 25981 45.0217 239.9425 0003246 305.6558 54.3988 14.37915749372994 ORBCOMM FM32 1 25982U 99065C 26073.95288807 .00000862 00000+0 33568-3 0 9993 2 25982 45.0148 259.2362 0005479 305.7564 54.2774 14.36977485373538 ORBCOMM FM33 1 25983U 99065D 26073.52483238 .00000992 00000+0 35118-3 0 9999 2 25983 45.0277 152.9085 0007981 329.4022 30.6362 14.40800205375044 ORBCOMM FM36 1 25984U 99065E 26074.18290673 .00001101 00000+0 39936-3 0 9997 2 25984 45.0383 245.7880 0003357 211.0753 148.9898 14.38997042373449 ORBCOMM FM35 1 25985U 99065F 26074.22563511 .00001033 00000+0 38604-3 0 9992 2 25985 45.0388 252.8565 0003007 309.3083 50.7499 14.37886859373789 ORBCOMM FM34 1 25986U 99065G 26074.19679124 .00000843 00000+0 32417-3 0 9991 2 25986 45.0381 253.5075 0003587 254.2523 105.7930 14.37797063373898 ORBCOMM FM38 1 33060U 08031A 26073.77912366 .00002117 00000+0 28582-3 0 9991 2 33060 48.4384 104.3516 0003929 132.9972 227.1274 14.82757950954888 ORBCOMM FM41 1 33061U 08031B 26073.82688784 .00002034 00000+0 27862-3 0 9990 2 33061 48.4419 112.8818 0003096 114.3267 56.0443 14.82291014954367 ORBCOMM FM29 1 33062U 08031C 26073.85406514 .00001808 00000+0 24970-3 0 9998 2 33062 48.4371 120.1677 0004700 113.4786 56.8107 14.82467399954286 ORBCOMM FM39 1 33063U 08031D 26073.92998612 .00001710 00000+0 24665-3 0 9995 2 33063 48.4386 147.2120 0005651 79.1076 281.0475 14.80845360953906 ORBCOMM FM37 1 33064U 08031E 26073.68757362 .00001762 00000+0 25215-3 0 9993 2 33064 48.4379 136.4700 0004249 100.8777 42.5530 14.81034967954126 ORBCOMM FM40 1 33065U 08031F 26073.83436360 .00002293 00000+0 30077-3 0 9995 2 33065 48.4397 114.9171 0005203 120.3167 49.7194 14.83684726954324 VESSELSAT 1 1 37840U 11058C 26074.16079833 .00000374 00000+0 59437-4 0 9998 2 37840 19.9615 254.1405 0013570 287.7080 72.1843 14.11421918744635 ORBCOMM FM109 1 40086U 14040A 26073.65053052 .00000660 00000+0 17628-3 0 9999 2 40086 47.0027 178.4113 0001629 179.0686 181.0203 14.58732783620540 ORBCOMM FM107 1 40087U 14040B 26073.80184462 .00000615 00000+0 16634-3 0 9993 2 40087 47.0045 178.5443 0000150 126.3088 233.7812 14.58817293620649 ORBCOMM FM106 1 40088U 14040C 26073.76937563 .00001126 00000+0 21528-3 0 9993 2 40088 47.0617 338.8361 0016842 246.1872 113.7253 14.70318774623285 ORBCOMM FM111 1 40089U 14040D 26073.94005824 .00002899 00000+0 33097-3 0 9992 2 40089 46.9996 150.4263 0027708 49.2084 311.1212 14.88379458630533 ORBCOMM FM104 1 40090U 14040E 26073.40466010 .00000633 00000+0 17632-3 0 9994 2 40090 47.0042 217.3158 0015894 357.8815 2.2000 14.57174908620023 ORBCOMM FM103 1 40091U 14040F 26073.72146646 .00000752 00000+0 19583-3 0 9999 2 40091 47.0045 179.6493 0000775 89.0273 271.0702 14.58721272603594 ORBCOMM FM114 1 41179U 15081A 26073.73691505 .00000696 00000+0 18390-3 0 9995 2 41179 47.0040 88.5140 0001464 149.0002 211.0971 14.58739144543960 ORBCOMM FM119 1 41180U 15081B 26073.94188703 .00000685 00000+0 18182-3 0 9998 2 41180 47.0022 356.9063 0001267 240.4685 119.6075 14.58683753545247 ORBCOMM FM105 1 41181U 15081C 26074.13314654 .00000292 00000+0 12649-3 0 9993 2 41181 47.0027 27.5219 0000905 84.6621 275.4363 14.45499002539942 ORBCOMM FM110 1 41182U 15081D 26073.72610817 .00000761 00000+0 19775-3 0 9996 2 41182 47.0011 88.0357 0003173 338.9563 21.1192 14.58744840543837 ORBCOMM FM118 1 41183U 15081E 26073.76070906 .00000826 00000+0 21141-3 0 9992 2 41183 47.0032 88.1886 0003826 307.5377 52.5160 14.58742177543945 ORBCOMM FM112 1 41184U 15081F 26073.83216073 .00000972 00000+0 24233-3 0 9995 2 41184 47.0008 356.3498 0001157 136.9512 223.1464 14.58744675545173 ORBCOMM FM113 1 41185U 15081G 26074.08334409 .00000865 00000+0 21960-3 0 9993 2 41185 47.0023 355.5313 0000912 156.9442 203.1485 14.58744158545199 ORBCOMM FM115 1 41186U 15081H 26073.73239854 .00000967 00000+0 22027-3 0 9991 2 41186 46.9977 192.2343 0001699 240.7873 119.2845 14.63133754547388 ORBCOMM FM108 1 41187U 15081J 26074.25138946 .00000588 00000+0 16096-3 0 9998 2 41187 47.0043 266.2783 0002308 131.7252 228.3831 14.58752624546364 ORBCOMM FM117 1 41188U 15081K 26074.21697455 .00000567 00000+0 15649-3 0 9990 2 41188 47.0006 265.1066 0002760 139.0973 221.0121 14.58743943546400 ORBCOMM FM116 1 41189U 15081L 26074.06082417 .00001022 00000+0 25293-3 0 9993 2 41189 47.0041 355.6292 0002165 334.3260 25.7518 14.58742368545198